Regional Weather Roundup
Issued by NWS Upton, NY

Current Version | Previous Version | Graphics & Text | Print | Product List | Glossary Off
Versions: 1 2 3 4 5 6 7 8 9 10 11 12 13 14 15 16 17 18 19 20 21 22 23 24 25 26 27

000
ASUS41 KOKX 191708
RWROKX

REGIONAL WEATHER ROUNDUP
NATIONAL WEATHER SERVICE NEW YORK NY
100 PM EDT THU OCT 19 2017

NOTE: "FAIR" INDICATES FEW OR NO CLOUDS BELOW 12,000 FEET WITH NO
SIGNIFICANT WEATHER AND/OR OBSTRUCTIONS TO VISIBILITY.

NYZ071-072-176-178-NJZ106-104-191800-
NEW YORK CITY METRO AREA

CITY           SKY/WX    TMP DP  RH WIND       PRES   REMARKS
Central Park   SUNNY     69  43  38 VRB5      30.21F
Bronx Bot Gard   N/A     68  43  40 SE9       30.21S
LaGuardia APRT MOSUNNY   69  41  36 SW15G22   30.19F
Kennedy INTL   MOSUNNY   67  46  47 SW13      30.21F
Breezy Point     N/A     66 N/A N/A SW7         N/A
Newark/Liberty MOSUNNY   71  41  33 SW17G23   30.19F
Teterboro      SUNNY     70  43  37 SW10      30.18F
$$

NYZ177-179-078>081-191800-
LONG ISLAND NEW YORK

CITY           SKY/WX    TMP DP  RH WIND       PRES   REMARKS
Jones Beach      N/A     63 N/A N/A SW8G14      N/A
Matinecock PT    N/A     66 N/A N/A SW16        N/A
Farmingdale    SUNNY     67  45  45 SW15      30.21F
MacArthur/ISP  MOSUNNY   68  45  43 SW20G26   30.20F
Shirley        SUNNY     69  49  48 SW12G21   30.21F
Mt Sinai Harb    N/A     68 N/A N/A SW7G14      N/A
Westhampton    SUNNY     66  49  54 SW16G23   30.22F
East Hampton   FAIR      66  53  62 SW15G21   30.20F
Montauk          N/A     67  54  63 SW14G21   30.22F
$$

NYZ052-065-067-191800-
HUDSON VALLEY

CITY           SKY/WX    TMP DP  RH WIND       PRES   REMARKS
White Plains   SUNNY     68  40  35 S9G17     30.18F
Larchmont Harb   N/A     64 N/A N/A S17         N/A
Croton On Huds   N/A     68 N/A N/A SW10        N/A
Newburgh       SUNNY     68  41  37 SW16G23   30.17F
Montgomery     SUNNY     69  44  40 SW16      30.14F
Poughkeepsie   SUNNY     69  36  29 SW9G20    30.14F
Albany         MOSUNNY   69  46  43 S9        30.08F
$$

NJZ001-105-106-008-010-013-015-019>022-104-191800-
NEW JERSEY

CITY           SKY/WX    TMP DP  RH WIND       PRES   REMARKS
Newark/Liberty MOSUNNY   71  41  33 SW17G23   30.19F
Teterboro      SUNNY     70  43  37 SW10      30.18F
Caldwell       SUNNY     67  45  45 VRB7      30.19F
Somerville     SUNNY     70  42  36 SW10G20   30.18F
Linden         FAIR      68  41  36 W10       30.20F
Perth Amboy      N/A     66 N/A N/A SW14G23     N/A
Sussex         SUNNY     68  44  42 SW12G18   30.17F
Andover          N/A     67  41  38 SW13      30.18F
Trenton        SUNNY     69  43  38 SW10      30.20F
Millville      SUNNY     69  51  52 W8        30.24F
Atlantic City  SUNNY     69  44  40 SW12      30.24F
Wrightstown    SUNNY     69  47  44 SW9       30.19F
Toms River       N/A     69  47  45 SW10      30.23F
Belmar         SUNNY     68  45  43 SW13      30.22F
$$

PAZ047>061-062-071-191800-
EASTERN PENNSYLVANIA

CITY           SKY/WX    TMP DP  RH WIND       PRES   REMARKS
Philadelphia   MOSUNNY   68  43  40 SW13      30.23F
Allentown      SUNNY     69  44  40 S10G17    30.20F
Scranton       SUNNY     68  42  38 SW14G22   30.17F
$$

CTZ002-004>006-009-010-012-RIZ004-006-007-MAZ004-011-015-191800-
SOUTHERN NEW ENGLAND
 IN CT

CITY           SKY/WX    TMP DP  RH WIND       PRES   REMARKS
Bradley INTL   MOSUNNY   73  39  29 SW14      30.13F
Hartford       SUNNY     71  45  39 SW10G17   30.15F
Danbury        SUNNY     70  40  33 W17       30.18F
Wtrbury/Oxford SUNNY     68  44  42 S7        30.18F
Norwalk Harbor   N/A     64 N/A N/A SW17        N/A
Bridgeport     SUNNY     69  48  47 SW12      30.18F
Meriden        SUNNY     69  44  40 S16G23    30.17F
New Haven      SUNNY     68  49  50 SW12G18   30.19F
Chester        FAIR      68  48  49 SW14G22   30.19F
Groton         SUNNY     68  54  60 SW13      30.19F
Wilimantic     SUNNY     71  46  40 SW12G17   30.16F

 IN RI

CITY           SKY/WX    TMP DP  RH WIND       PRES   REMARKS
Providence     MOSUNNY   72  48  42 SW15G21   30.17F
Block Island   SUNNY     66  55  67 SW15G23   30.21F
Westerly       SUNNY     69  52  54 SW12      30.20F
 IN MA

CITY           SKY/WX    TMP DP  RH WIND       PRES   REMARKS
Boston         MOSUNNY   73  48  41 SW18      30.12F
Worcester      SUNNY     68  39  34 SW18G25   30.14F
Westfield      SUNNY     73  39  29 S17       30.11F
Provincetown   SUNNY     68  55  63 SW15G22   30.17F
Nantucket      MOSUNNY   65  60  84 SW15      30.21F
$$

ANZ330-335-338-340-345-350-353-355-191800-
COASTAL MARINE OBSERVATIONS


STATION/POSITION TIME  SKY/WX   TEMP    WIND        PRES    VSBY  WAVE
                                AIR SEA DIR/SP/G                  HT/PER
                 (UTC)          (F)     (DEG/KT/KT) (MB)    (MI)  (FT/S)
NY HARB ENTRANCE 1650            63 65  210/ 12/ 16 1022.6          3/ 9
20 S FIRE ISLAND 1650            62 64  240/ 14/ 17 1023.5          3/10
GREAT SOUTH BAY  1615            62 62  240/ 14/ 16   N/A
15 E BARNEGAT LI 1630               66                N/A           4/ 9
HUDSON CANYON    1650            64 65  230/ 12/ 14 1023.6          3/ 9
KINGS POINT      1636            66 65  270/ 12/ 15 1023.4
EXECUTION ROCKS  1630            68     210/ 14/ 19   N/A
WESTERN LI SOUND 1549            66     240/ 16/ 19   N/A           1/ 3
CENTRAL LI SOUND 1530            65     230/ 12/ 14   N/A           2
EASTERN LI SOUND NOT AVBL
ROBBINS REEF     1648            66     200/ 18/ 20 1023.2
$$


>>>>>>>>>>>>>>>>>>>>>>>>>>>> KEY <<<<<<<<<<<<<<<<<<<<<<<<<<<
>                                                          <
>     SKY/WX - Sky Condition/Present Weather               <
>     TMP    - Temperature in Fahrenheit                   <
>     DP     - Dew Point in Fahrenheit                     <
>     RH     - Relative Humidity in Percent                <
>     WIND   - Direction (from) and Speed in MPH           <
>     PRES   - Mean Sea Level Pressure (inches of Hg)      <
>     WCI    - Wind Chill Index                            <
>     VSB    - VISIBILITY IN MILES                         <
>     HX     - HEAT INDEX                                  <
>     TC     - TEMPERATURE IN CELSIUS                      <
>     VRB    - VARIABLE WIND DIRECTION                     <
>                                                          <
>>>>>>>>>>>>>>>>>>>>>>>>>>>> KEY <<<<<<<<<<<<<<<<<<<<<<<<<<<




USA.gov is the U.S. government's official web portal to all federal, state and local government web resources and services.